Wetterdaten: Dienstag, 16.01.2018
Datum Zeit Temp. A. Aussen2m Boden Feuchte A. Feuchte 2 Luftdruck Regen Wind Richtung Richtung Sonnenschein
16.01.2018 00:00 7,2 C 7,1 C 4,9 C 92 % 90 % 989,7 hPa 0,0 l/m 24,2 km/h (4 Bft) W-SW 255 0 min
16.01.2018 00:05 7,2 C 7,1 C 4,9 C 92 % 90 % 989,7 hPa 0,0 l/m 28,2 km/h (5 Bft) SW 235 0 min
16.01.2018 00:10 7,1 C 7,1 C 4,9 C 93 % 90 % 989,7 hPa 0,0 l/m 23,0 km/h (4 Bft) SW 230 0 min
16.01.2018 00:15 7,1 C 7,1 C 4,9 C 93 % 90 % 989,7 hPa 0,0 l/m 21,8 km/h (4 Bft) SW 225 0 min
16.01.2018 00:20 7,0 C 7,0 C 4,9 C 93 % 90 % 989,7 hPa 0,0 l/m 23,0 km/h (4 Bft) SW 230 0 min
16.01.2018 00:25 7,0 C 6,9 C 4,9 C 93 % 90 % 990,7 hPa 0,0 l/m 25,4 km/h (4 Bft) S-SO 150 0 min
16.01.2018 00:30 7,0 C 6,9 C 4,9 C 93 % 90 % 990,7 hPa 0,0 l/m 18,2 km/h (3 Bft) S-SW 195 0 min
16.01.2018 00:35 6,9 C 6,9 C 4,9 C 94 % 90 % 990,7 hPa 0,0 l/m 15,1 km/h (3 Bft) SW 235 0 min
16.01.2018 00:40 6,9 C 6,9 C 4,9 C 94 % 91 % 991,7 hPa 0,0 l/m 22,4 km/h (4 Bft) NW 305 0 min
16.01.2018 00:45 7,0 C 6,9 C 4,9 C 93 % 90 % 991,7 hPa 0,0 l/m 21,8 km/h (4 Bft) W-NW 285 0 min
16.01.2018 00:50 7,0 C 6,9 C 4,9 C 93 % 90 % 991,7 hPa 0,0 l/m 29,8 km/h (5 Bft) N 10 0 min
16.01.2018 00:55 7,0 C 6,9 C 4,9 C 92 % 90 % 990,7 hPa 0,0 l/m 27,8 km/h (5 Bft) W-SW 250 0 min
16.01.2018 01:00 7,0 C 7,0 C 4,9 C 91 % 88 % 990,7 hPa 0,0 l/m 29,8 km/h (5 Bft) W-SW 255 0 min
16.01.2018 01:05 6,9 C 6,9 C 4,9 C 90 % 88 % 990,7 hPa 0,0 l/m 18,2 km/h (3 Bft) NW 310 0 min
16.01.2018 01:10 6,8 C 6,9 C 4,9 C 91 % 88 % 991,7 hPa 0,0 l/m 20,0 km/h (4 Bft) S-SW 210 0 min
16.01.2018 01:15 6,8 C 6,8 C 4,9 C 90 % 87 % 991,7 hPa 0,0 l/m 30,9 km/h (5 Bft) W-NW 300 0 min
16.01.2018 01:20 6,8 C 6,8 C 4,9 C 90 % 87 % 991,7 hPa 0,0 l/m 23,6 km/h (4 Bft) W-SW 255 0 min
16.01.2018 01:25 6,8 C 6,7 C 4,9 C 90 % 87 % 991,7 hPa 0,0 l/m 23,0 km/h (4 Bft) NW 315 0 min
16.01.2018 01:30 6,8 C 6,8 C 4,9 C 89 % 87 % 991,7 hPa 0,0 l/m 23,6 km/h (4 Bft) W-NW 300 0 min
16.01.2018 01:35 6,8 C 6,7 C 4,9 C 89 % 87 % 991,7 hPa 0,0 l/m 30,2 km/h (5 Bft) NW 305 0 min
16.01.2018 01:40 6,7 C 6,7 C 4,9 C 89 % 87 % 991,7 hPa 0,0 l/m 23,6 km/h (4 Bft) S-SW 210 0 min
16.01.2018 01:45 6,8 C 6,7 C 4,9 C 89 % 87 % 991,7 hPa 0,0 l/m 23,0 km/h (4 Bft) SW 230 0 min
16.01.2018 01:50 6,7 C 6,7 C 4,9 C 89 % 87 % 991,7 hPa 0,0 l/m 23,6 km/h (4 Bft) W-SW 245 0 min
16.01.2018 01:55 6,7 C 6,7 C 4,9 C 89 % 87 % 990,7 hPa 0,0 l/m 26,3 km/h (4 Bft) SW 230 0 min
16.01.2018 02:00 6,7 C 6,7 C 4,9 C 89 % 87 % 990,7 hPa 0,0 l/m 26,7 km/h (4 Bft) W-SW 240 0 min
16.01.2018 02:05 6,7 C 6,7 C 4,9 C 89 % 87 % 990,7 hPa 0,0 l/m 31,3 km/h (5 Bft) W-SW 240 0 min
16.01.2018 02:10 6,6 C 6,6 C 4,9 C 89 % 87 % 991,7 hPa 0,0 l/m 23,0 km/h (4 Bft) S-SW 195 0 min
16.01.2018 02:15 6,6 C 6,6 C 4,9 C 88 % 86 % 991,7 hPa 0,0 l/m 26,7 km/h (4 Bft) W-SW 250 0 min
16.01.2018 02:20 6,5 C 6,4 C 4,9 C 89 % 87 % 991,8 hPa 0,0 l/m 29,4 km/h (5 Bft) S-SW 200 0 min
16.01.2018 02:25 6,5 C 6,5 C 4,9 C 89 % 87 % 990,7 hPa 0,0 l/m 16,9 km/h (3 Bft) W-SW 255 0 min
16.01.2018 02:30 6,4 C 6,4 C 4,9 C 89 % 87 % 990,7 hPa 0,0 l/m 20,0 km/h (4 Bft) SW 235 0 min
16.01.2018 02:35 6,4 C 6,4 C 4,9 C 90 % 87 % 990,7 hPa 0,0 l/m 23,6 km/h (4 Bft) NW 305 0 min
16.01.2018 02:40 6,4 C 6,3 C 4,9 C 90 % 88 % 991,8 hPa 0,0 l/m 19,4 km/h (3 Bft) S 185 0 min
16.01.2018 02:45 6,4 C 6,3 C 4,9 C 90 % 88 % 991,8 hPa 0,0 l/m 26,0 km/h (4 Bft) NW 310 0 min
16.01.2018 02:50 6,2 C 6,2 C 4,9 C 91 % 88 % 991,8 hPa 0,0 l/m 21,8 km/h (4 Bft) S-SW 195 0 min
16.01.2018 02:55 6,2 C 6,1 C 4,9 C 91 % 88 % 991,8 hPa 0,0 l/m 17,6 km/h (3 Bft) W-SW 255 0 min
16.01.2018 03:00 6,1 C 6,1 C 4,9 C 91 % 88 % 991,8 hPa 0,0 l/m 19,4 km/h (3 Bft) SW 230 0 min
16.01.2018 03:05 6,1 C 6,0 C 4,9 C 91 % 88 % 991,8 hPa 0,0 l/m 23,0 km/h (4 Bft) W-SW 240 0 min
16.01.2018 03:10 6,3 C 6,1 C 4,9 C 90 % 88 % 990,8 hPa 0,0 l/m 21,8 km/h (4 Bft) N 0 0 min
16.01.2018 03:15 6,3 C 6,1 C 4,9 C 89 % 88 % 990,8 hPa 0,0 l/m 18,8 km/h (3 Bft) W-SW 240 0 min
16.01.2018 03:20 6,4 C 6,2 C 4,9 C 89 % 87 % 990,7 hPa 0,0 l/m 19,4 km/h (3 Bft) W-SW 240 0 min
16.01.2018 03:25 6,4 C 6,2 C 4,9 C 89 % 87 % 990,7 hPa 0,0 l/m 16,9 km/h (3 Bft) W-SW 240 0 min
16.01.2018 03:30 6,4 C 6,2 C 4,9 C 89 % 88 % 990,7 hPa 0,0 l/m 18,2 km/h (3 Bft) SW 230 0 min
16.01.2018 03:35 6,4 C 6,2 C 4,9 C 89 % 88 % 990,7 hPa 0,0 l/m 27,1 km/h (5 Bft) W 265 0 min
16.01.2018 03:40 6,5 C 6,2 C 4,9 C 89 % 88 % 990,7 hPa 0,0 l/m 26,0 km/h (4 Bft) S-SW 200 0 min
16.01.2018 03:45 6,5 C 6,3 C 4,9 C 89 % 88 % 990,7 hPa 0,0 l/m 31,3 km/h (5 Bft) W-SW 250 0 min
16.01.2018 03:50 6,6 C 6,3 C 4,9 C 89 % 88 % 990,7 hPa 0,0 l/m 24,2 km/h (4 Bft) SW 235 0 min
16.01.2018 03:55 6,6 C 6,4 C 4,9 C 89 % 88 % 990,7 hPa 0,0 l/m 26,0 km/h (4 Bft) W-SW 250 0 min
16.01.2018 04:00 6,6 C 6,4 C 4,9 C 89 % 88 % 990,7 hPa 0,0 l/m 25,4 km/h (4 Bft) W-SW 245 0 min
16.01.2018 04:05 6,6 C 6,4 C 4,9 C 89 % 87 % 990,7 hPa 0,0 l/m 24,8 km/h (4 Bft) SW 220 0 min
16.01.2018 04:10 6,6 C 6,4 C 4,9 C 88 % 87 % 990,7 hPa 0,0 l/m 27,1 km/h (5 Bft) S-SW 205 0 min
16.01.2018 04:15 6,7 C 6,5 C 4,9 C 88 % 87 % 990,7 hPa 0,0 l/m 26,0 km/h (4 Bft) S-SW 205 0 min
16.01.2018 04:20 6,6 C 6,5 C 4,9 C 89 % 87 % 990,7 hPa 0,0 l/m 26,0 km/h (4 Bft) W 275 0 min
16.01.2018 04:25 6,6 C 6,5 C 4,9 C 88 % 87 % 990,7 hPa 0,0 l/m 26,7 km/h (4 Bft) SW 230 0 min
16.01.2018 04:30 6,7 C 6,5 C 4,9 C 88 % 87 % 990,7 hPa 0,0 l/m 24,2 km/h (4 Bft) W-SW 245 0 min
16.01.2018 04:35 6,5 C 6,4 C 4,9 C 90 % 87 % 990,7 hPa 0,0 l/m 16,9 km/h (3 Bft) SW 235 0 min
16.01.2018 04:40 6,4 C 6,4 C 4,9 C 91 % 88 % 989,7 hPa 0,3 l/m 15,1 km/h (3 Bft) W-NW 295 0 min
16.01.2018 04:45 6,3 C 6,3 C 4,9 C 91 % 89 % 989,7 hPa 0,0 l/m 9,1 km/h (2 Bft) NW 315 0 min
16.01.2018 04:50 6,4 C 6,2 C 4,9 C 91 % 89 % 989,7 hPa 0,0 l/m 18,2 km/h (3 Bft) W-SW 240 0 min
16.01.2018 04:55 6,5 C 6,3 C 4,9 C 89 % 88 % 989,7 hPa 0,0 l/m 23,0 km/h (4 Bft) W-SW 250 0 min
16.01.2018 05:00 6,5 C 6,4 C 4,9 C 90 % 89 % 989,7 hPa 0,0 l/m 24,2 km/h (4 Bft) SW 230 0 min
16.01.2018 05:05 6,4 C 6,4 C 4,9 C 91 % 89 % 989,7 hPa 0,0 l/m 20,6 km/h (4 Bft) W-SW 250 0 min
16.01.2018 05:10 6,5 C 6,3 C 4,9 C 90 % 89 % 988,7 hPa 0,0 l/m 27,1 km/h (5 Bft) S-SW 210 0 min
16.01.2018 05:15 6,4 C 6,3 C 4,9 C 90 % 89 % 988,7 hPa 0,0 l/m 24,8 km/h (4 Bft) SW 215 0 min
16.01.2018 05:20 6,4 C 6,3 C 4,9 C 90 % 89 % 988,7 hPa 0,0 l/m 21,8 km/h (4 Bft) W-SW 255 0 min
16.01.2018 05:25 6,5 C 6,4 C 4,9 C 90 % 88 % 989,7 hPa 0,0 l/m 25,4 km/h (4 Bft) SW 220 0 min
16.01.2018 05:30 6,5 C 6,4 C 4,9 C 89 % 88 % 989,7 hPa 0,0 l/m 25,4 km/h (4 Bft) S-SW 210 0 min
16.01.2018 05:35 6,6 C 6,4 C 4,9 C 89 % 88 % 989,7 hPa 0,0 l/m 27,4 km/h (5 Bft) W-SW 240 0 min
16.01.2018 05:40 6,5 C 6,4 C 4,9 C 89 % 87 % 989,7 hPa 0,0 l/m 24,8 km/h (4 Bft) SW 230 0 min
16.01.2018 05:45 6,5 C 6,4 C 4,9 C 88 % 87 % 989,7 hPa 0,0 l/m 29,4 km/h (5 Bft) W-SW 250 0 min
16.01.2018 05:50 6,6 C 6,3 C 4,9 C 88 % 87 % 989,7 hPa 0,3 l/m 31,7 km/h (5 Bft) W-SW 250 0 min
16.01.2018 05:55 6,4 C 6,2 C 4,9 C 88 % 87 % 989,7 hPa 0,0 l/m 24,2 km/h (4 Bft) W-NW 295 0 min
16.01.2018 06:00 6,4 C 6,2 C 4,9 C 88 % 87 % 989,7 hPa 0,0 l/m 20,6 km/h (4 Bft) W-SW 255 0 min
16.01.2018 06:05 6,3 C 6,2 C 4,9 C 89 % 87 % 989,7 hPa 0,0 l/m 28,2 km/h (5 Bft) W 265 0 min
16.01.2018 06:10 6,4 C 6,2 C 4,9 C 88 % 87 % 989,7 hPa 0,0 l/m 23,6 km/h (4 Bft) W-NW 285 0 min
16.01.2018 06:15 6,4 C 6,2 C 4,9 C 88 % 87 % 989,7 hPa 0,0 l/m 23,0 km/h (4 Bft) SW 215 0 min
16.01.2018 06:20 6,4 C 6,2 C 4,9 C 88 % 87 % 989,7 hPa 0,0 l/m 25,4 km/h (4 Bft) SW 235 0 min
16.01.2018 06:25 6,4 C 6,2 C 4,9 C 88 % 87 % 989,7 hPa 0,0 l/m 24,2 km/h (4 Bft) W 260 0 min
16.01.2018 06:30 6,5 C 6,2 C 4,9 C 87 % 87 % 989,7 hPa 0,0 l/m 26,3 km/h (4 Bft) SW 235 0 min
16.01.2018 06:35 6,5 C 6,2 C 4,9 C 87 % 86 % 989,7 hPa 0,0 l/m 27,4 km/h (5 Bft) SW 230 0 min
16.01.2018 06:40 6,5 C 6,2 C 4,9 C 87 % 86 % 989,7 hPa 0,0 l/m 21,2 km/h (4 Bft) SW 225 0 min
16.01.2018 06:45 6,5 C 6,2 C 4,9 C 87 % 86 % 989,7 hPa 0,0 l/m 26,0 km/h (4 Bft) W-NW 295 0 min
16.01.2018 06:50 6,5 C 6,2 C 4,9 C 87 % 86 % 989,7 hPa 0,0 l/m 27,1 km/h (5 Bft) SW 225 0 min
16.01.2018 06:55 6,6 C 6,3 C 4,9 C 87 % 86 % 989,7 hPa 0,0 l/m 27,1 km/h (5 Bft) S-SW 195 0 min
16.01.2018 07:00 6,6 C 6,3 C 4,9 C 87 % 86 % 989,7 hPa 0,0 l/m 20,6 km/h (4 Bft) S-SW 210 0 min
16.01.2018 07:05 6,5 C 6,3 C 4,9 C 87 % 87 % 989,7 hPa 0,0 l/m 20,0 km/h (4 Bft) SW 235 0 min
16.01.2018 07:10 6,5 C 6,3 C 4,9 C 87 % 86 % 989,7 hPa 0,0 l/m 26,3 km/h (4 Bft) W-SW 240 0 min
16.01.2018 07:15 6,6 C 6,4 C 4,9 C 87 % 86 % 989,7 hPa 0,0 l/m 24,2 km/h (4 Bft) S-SW 210 0 min
16.01.2018 07:20 6,5 C 6,3 C 4,9 C 87 % 86 % 989,7 hPa 0,0 l/m 26,0 km/h (4 Bft) SW 230 0 min
16.01.2018 07:25 6,6 C 6,4 C 4,9 C 87 % 86 % 989,7 hPa 0,0 l/m 28,2 km/h (5 Bft) SW 225 0 min
16.01.2018 07:30 6,5 C 6,3 C 4,9 C 88 % 86 % 989,7 hPa 0,0 l/m 20,6 km/h (4 Bft) SW 230 0 min
16.01.2018 07:35 6,5 C 6,3 C 4,9 C 88 % 86 % 989,7 hPa 0,0 l/m 20,6 km/h (4 Bft) SW 230 0 min
16.01.2018 07:40 6,5 C 6,2 C 4,9 C 87 % 86 % 989,7 hPa 0,0 l/m 24,2 km/h (4 Bft) SW 235 0 min
16.01.2018 07:45 6,5 C 6,2 C 4,9 C 87 % 86 % 989,7 hPa 0,0 l/m 21,8 km/h (4 Bft) SW 235 0 min
16.01.2018 07:50 6,4 C 6,2 C 4,9 C 87 % 86 % 989,7 hPa 0,0 l/m 20,6 km/h (4 Bft) W-NW 290 0 min
16.01.2018 07:55 6,4 C 6,2 C 4,9 C 87 % 86 % 988,7 hPa 0,0 l/m 19,4 km/h (3 Bft) W-SW 255 0 min
16.01.2018 08:00 6,4 C 6,2 C 4,7 C 88 % 87 % 988,7 hPa 0,0 l/m 26,0 km/h (4 Bft) SW 230 0 min
16.01.2018 08:05 6,3 C 6,2 C 4,7 C 89 % 88 % 988,7 hPa 0,0 l/m 27,8 km/h (5 Bft) W-SW 245 0 min
16.01.2018 08:10 5,9 C 6,1 C 4,7 C 90 % 88 % 989,7 hPa 0,3 l/m 32,9 km/h (5 Bft) NW 320 0 min
16.01.2018 08:15 5,4 C 5,7 C 4,5 C 90 % 86 % 989,8 hPa 0,6 l/m 29,8 km/h (5 Bft) W 270 0 min
16.01.2018 08:20 4,4 C 4,9 C 4,1 C 90 % 85 % 989,8 hPa 0,6 l/m 26,3 km/h (4 Bft) W-SW 240 0 min
16.01.2018 08:25 4,4 C 4,6 C 3,9 C 90 % 86 % 988,8 hPa 0,0 l/m 19,4 km/h (3 Bft) W-NW 295 0 min
16.01.2018 08:30 4,6 C 4,5 C 3,9 C 91 % 88 % 988,8 hPa 0,3 l/m 10,9 km/h (2 Bft) N-NW 340 0 min
16.01.2018 08:35 4,7 C 4,5 C 3,9 C 92 % 88 % 988,8 hPa 0,0 l/m 7,3 km/h (2 Bft) N 10 0 min
16.01.2018 08:40 4,8 C 4,5 C 3,9 C 93 % 90 % 988,8 hPa 0,0 l/m 7,3 km/h (2 Bft) W-SW 240 0 min
16.01.2018 08:45 4,6 C 4,4 C 3,9 C 93 % 90 % 988,8 hPa 0,3 l/m 3,6 km/h (1 Bft) SW 220 0 min
16.01.2018 08:50 5,3 C 4,7 C 3,9 C 93 % 91 % 988,8 hPa 0,0 l/m 15,7 km/h (3 Bft) SW 230 0 min
16.01.2018 08:55 5,4 C 4,8 C 3,9 C 93 % 91 % 988,8 hPa 0,0 l/m 15,7 km/h (3 Bft) SW 235 0 min
16.01.2018 09:00 5,7 C 5,1 C 3,9 C 91 % 90 % 988,8 hPa 0,0 l/m 28,6 km/h (5 Bft) W-SW 245 0 min
16.01.2018 09:05 5,9 C 5,2 C 3,9 C 90 % 90 % 988,8 hPa 0,3 l/m 24,8 km/h (4 Bft) W 275 0 min
16.01.2018 09:10 6,1 C 5,6 C 3,9 C 89 % 89 % 988,7 hPa 0,0 l/m 21,2 km/h (4 Bft) W-SW 240 0 min
16.01.2018 09:15 6,1 C 5,7 C 4,1 C 89 % 88 % 988,7 hPa 0,0 l/m 24,2 km/h (4 Bft) SW 235 0 min
16.01.2018 09:20 6,1 C 5,7 C 4,1 C 89 % 88 % 988,7 hPa 0,0 l/m 19,4 km/h (3 Bft) SW 230 0 min
16.01.2018 09:25 6,2 C 5,8 C 4,1 C 89 % 88 % 988,7 hPa 0,3 l/m 20,0 km/h (4 Bft) SW 220 0 min
16.01.2018 09:30 6,6 C 6,1 C 4,1 C 86 % 87 % 988,7 hPa 0,0 l/m 29,8 km/h (5 Bft) W-SW 250 0 min
16.01.2018 09:35 6,5 C 6,1 C 4,1 C 87 % 87 % 988,7 hPa 0,0 l/m 28,2 km/h (5 Bft) SW 235 0 min
16.01.2018 09:40 6,5 C 6,2 C 4,1 C 87 % 87 % 988,7 hPa 0,0 l/m 28,2 km/h (5 Bft) SW 235 0 min
16.01.2018 09:45 6,5 C 6,3 C 4,1 C 87 % 86 % 988,7 hPa 0,0 l/m 27,1 km/h (5 Bft) S-SW 210 1 min
16.01.2018 09:50 6,5 C 6,3 C 4,1 C 87 % 86 % 988,7 hPa 0,0 l/m 27,1 km/h (5 Bft) S-SW 210 0 min
16.01.2018 09:55 6,7 C 6,4 C 4,1 C 86 % 86 % 988,7 hPa 0,0 l/m 36,8 km/h (5 Bft) S-SW 205 0 min
16.01.2018 10:00 6,8 C 6,4 C 4,1 C 86 % 86 % 988,7 hPa 0,0 l/m 31,7 km/h (5 Bft) W-SW 245 1 min
16.01.2018 10:05 6,8 C 6,6 C 4,1 C 86 % 86 % 988,7 hPa 0,0 l/m 31,7 km/h (5 Bft) W-SW 245 0 min
16.01.2018 10:10 6,7 C 6,6 C 4,7 C 87 % 85 % 988,7 hPa 0,0 l/m 24,2 km/h (4 Bft) W-NW 285 1 min
16.01.2018 10:15 6,6 C 6,4 C 4,7 C 87 % 86 % 988,7 hPa 0,0 l/m 26,0 km/h (4 Bft) N 10 0 min
16.01.2018 10:20 6,1 C 6,2 C 4,7 C 87 % 85 % 988,7 hPa 0,3 l/m 29,0 km/h (5 Bft) W-NW 300 0 min
16.01.2018 10:25 6,0 C 6,2 C 4,7 C 88 % 86 % 989,7 hPa 0,0 l/m 14,5 km/h (3 Bft) W-NW 300 0 min
16.01.2018 10:30 5,8 C 6,1 C 4,7 C 89 % 86 % 989,7 hPa 0,0 l/m 20,0 km/h (4 Bft) SW 225 0 min
16.01.2018 10:35 5,9 C 5,8 C 4,7 C 88 % 86 % 989,8 hPa 0,0 l/m 34,0 km/h (5 Bft) W-SW 240 0 min
16.01.2018 10:40 5,5 C 5,8 C 4,5 C 88 % 86 % 989,8 hPa 0,3 l/m 43,3 km/h (6 Bft) W-NW 300 0 min
16.01.2018 10:45 3,5 C 5,0 C 4,3 C 91 % 84 % 989,8 hPa 0,6 l/m 45,3 km/h (6 Bft) N 355 0 min
16.01.2018 10:50 3,3 C 4,1 C 4,3 C 92 % 86 % 989,8 hPa 0,3 l/m 42,6 km/h (6 Bft) N-NW 335 0 min
16.01.2018 10:55 3,1 C 3,7 C 4,1 C 93 % 88 % 990,8 hPa 0,6 l/m 46,8 km/h (6 Bft) W 275 0 min
16.01.2018 11:00 3,0 C 3,5 C 3,9 C 94 % 89 % 990,8 hPa 0,6 l/m 37,1 km/h (5 Bft) W 280 0 min
16.01.2018 11:05 3,3 C 3,5 C 3,9 C 93 % 89 % 990,8 hPa 0,3 l/m 33,3 km/h (5 Bft) W 280 0 min
16.01.2018 11:10 3,3 C 3,5 C 3,7 C 93 % 89 % 990,8 hPa 0,3 l/m 34,8 km/h (5 Bft) W-NW 290 0 min
16.01.2018 11:15 3,2 C 3,4 C 3,7 C 93 % 89 % 990,8 hPa 0,3 l/m 39,1 km/h (6 Bft) SW 215 0 min
16.01.2018 11:20 3,1 C 3,2 C 3,7 C 93 % 90 % 990,8 hPa 0,3 l/m 35,2 km/h (5 Bft) W-NW 290 0 min
16.01.2018 11:25 3,1 C 3,2 C 3,7 C 94 % 90 % 990,8 hPa 0,3 l/m 25,4 km/h (4 Bft) W 275 0 min
16.01.2018 11:30 3,1 C 3,3 C 3,5 C 95 % 91 % 990,8 hPa 0,0 l/m 23,6 km/h (4 Bft) N-NO 15 0 min
16.01.2018 11:35 3,2 C 3,4 C 3,5 C 95 % 91 % 990,8 hPa 0,0 l/m 18,2 km/h (3 Bft) NW 325 0 min
16.01.2018 11:40 3,5 C 3,6 C 3,7 C 94 % 91 % 990,8 hPa 0,0 l/m 23,0 km/h (4 Bft) NW 320 0 min
16.01.2018 11:45 3,7 C 3,8 C 3,7 C 94 % 91 % 990,8 hPa 0,0 l/m 21,8 km/h (4 Bft) W-SW 245 0 min
16.01.2018 11:50 3,9 C 3,9 C 3,7 C 94 % 91 % 990,8 hPa 0,0 l/m 28,2 km/h (5 Bft) W-NW 295 0 min
16.01.2018 11:55 4,0 C 4,0 C 3,7 C 93 % 91 % 991,8 hPa 0,0 l/m 29,8 km/h (5 Bft) W 275 0 min
16.01.2018 12:00 4,0 C 4,0 C 3,7 C 93 % 90 % 991,8 hPa 0,0 l/m 39,1 km/h (6 Bft) W-NW 300 0 min
16.01.2018 12:05 3,9 C 4,0 C 3,7 C 91 % 89 % 991,8 hPa 0,3 l/m 32,5 km/h (5 Bft) W-NW 295 0 min
16.01.2018 12:10 3,9 C 4,0 C 3,7 C 91 % 88 % 991,8 hPa 0,0 l/m 28,6 km/h (5 Bft) NW 305 0 min
16.01.2018 12:15 3,8 C 4,0 C 3,7 C 90 % 88 % 991,8 hPa 0,0 l/m 30,9 km/h (5 Bft) NW 310 0 min
16.01.2018 12:20 3,8 C 4,0 C 3,7 C 91 % 88 % 991,8 hPa 0,0 l/m 20,6 km/h (4 Bft) NW 310 0 min
16.01.2018 12:25 3,8 C 4,0 C 3,7 C 91 % 88 % 991,8 hPa 0,0 l/m 25,4 km/h (4 Bft) W-SW 245 0 min
16.01.2018 12:30 3,8 C 4,0 C 3,7 C 91 % 89 % 991,8 hPa 0,0 l/m 20,6 km/h (4 Bft) NW 310 0 min
16.01.2018 12:35 3,8 C 4,0 C 3,7 C 92 % 89 % 991,8 hPa 0,0 l/m 26,0 km/h (4 Bft) NW 315 2 min
16.01.2018 12:40 4,2 C 4,2 C 3,7 C 92 % 90 % 991,8 hPa 0,0 l/m 16,3 km/h (3 Bft) W 280 3 min
16.01.2018 12:45 4,2 C 4,3 C 3,7 C 92 % 89 % 991,8 hPa 0,0 l/m 9,7 km/h (2 Bft) W-NW 290 6 min
16.01.2018 12:50 4,2 C 4,2 C 3,7 C 92 % 90 % 991,8 hPa 0,0 l/m 14,5 km/h (3 Bft) NW 310 2 min
16.01.2018 12:55 4,3 C 4,3 C 3,7 C 92 % 89 % 990,8 hPa 0,0 l/m 26,7 km/h (4 Bft) SW 220 0 min
16.01.2018 13:00 4,5 C 4,4 C 3,9 C 90 % 89 % 990,8 hPa 0,0 l/m 27,8 km/h (5 Bft) W 260 0 min
16.01.2018 13:05 4,5 C 4,4 C 3,9 C 89 % 88 % 990,8 hPa 0,0 l/m 23,6 km/h (4 Bft) W-SW 255 1 min
16.01.2018 13:10 4,5 C 4,5 C 3,7 C 89 % 87 % 991,8 hPa 0,0 l/m 25,4 km/h (4 Bft) W-NW 300 2 min
16.01.2018 13:15 4,5 C 4,5 C 3,7 C 88 % 86 % 991,8 hPa 0,0 l/m 31,7 km/h (5 Bft) W 270 2 min
16.01.2018 13:20 4,5 C 4,6 C 3,7 C 88 % 86 % 991,8 hPa 0,0 l/m 27,4 km/h (5 Bft) SW 215 2 min
16.01.2018 13:25 4,9 C 4,8 C 3,7 C 87 % 87 % 991,8 hPa 0,0 l/m 22,4 km/h (4 Bft) S 185 7 min
16.01.2018 13:30 4,8 C 4,7 C 3,7 C 87 % 86 % 991,8 hPa 0,0 l/m 25,4 km/h (4 Bft) S-SW 195 3 min
16.01.2018 13:35 5,0 C 4,8 C 3,7 C 87 % 86 % 991,8 hPa 0,0 l/m 23,6 km/h (4 Bft) SW 220 5 min
16.01.2018 13:40 5,1 C 4,9 C 3,7 C 87 % 86 % 991,8 hPa 0,0 l/m 22,4 km/h (4 Bft) O-NO 70 3 min
16.01.2018 13:45 4,9 C 4,9 C 3,7 C 87 % 87 % 991,8 hPa 0,0 l/m 21,2 km/h (4 Bft) SW 230 4 min
16.01.2018 13:50 4,8 C 4,8 C 3,9 C 88 % 87 % 991,8 hPa 0,0 l/m 20,0 km/h (4 Bft) S-SW 200 0 min
16.01.2018 13:55 4,7 C 4,8 C 3,7 C 87 % 86 % 991,8 hPa 0,0 l/m 34,8 km/h (5 Bft) W 280 0 min
16.01.2018 14:00 4,6 C 4,7 C 3,7 C 88 % 86 % 991,8 hPa 0,0 l/m 32,1 km/h (5 Bft) W-NW 290 0 min
16.01.2018 14:05 4,3 C 4,6 C 3,7 C 89 % 86 % 991,8 hPa 0,3 l/m 18,2 km/h (3 Bft) W 265 0 min
16.01.2018 14:10 4,1 C 4,4 C 3,7 C 90 % 87 % 991,8 hPa 0,0 l/m 25,4 km/h (4 Bft) W 280 0 min
16.01.2018 14:15 4,0 C 4,3 C 3,7 C 91 % 88 % 991,8 hPa 0,0 l/m 21,2 km/h (4 Bft) W 270 1 min
16.01.2018 14:20 4,4 C 4,5 C 3,7 C 92 % 90 % 991,8 hPa 0,0 l/m 11,5 km/h (2 Bft) SW 230 5 min
16.01.2018 14:25 4,3 C 4,4 C 3,7 C 91 % 90 % 991,8 hPa 0,0 l/m 13,3 km/h (3 Bft) SW 220 5 min
16.01.2018 14:30 4,3 C 4,5 C 3,7 C 91 % 90 % 991,8 hPa 0,0 l/m 13,3 km/h (3 Bft) SW 220 0 min
16.01.2018 14:35 4,7 C 4,6 C 3,7 C 91 % 90 % 991,8 hPa 0,0 l/m 12,1 km/h (2 Bft) SW 220 9 min
16.01.2018 14:40 4,8 C 4,6 C 3,7 C 91 % 89 % 991,8 hPa 0,0 l/m 13,3 km/h (3 Bft) W-NW 290 3 min
16.01.2018 14:45 4,5 C 4,6 C 3,7 C 89 % 89 % 991,8 hPa 0,0 l/m 13,3 km/h (3 Bft) SW 220 6 min
16.01.2018 14:50 4,3 C 4,4 C 3,7 C 89 % 88 % 991,8 hPa 0,0 l/m 16,3 km/h (3 Bft) W-SW 245 0 min
16.01.2018 14:55 4,2 C 4,3 C 3,7 C 90 % 88 % 991,8 hPa 0,0 l/m 9,7 km/h (2 Bft) SW 220 0 min
16.01.2018 15:00 4,2 C 4,2 C 3,7 C 90 % 88 % 991,8 hPa 0,0 l/m 16,3 km/h (3 Bft) SW 220 0 min
16.01.2018 15:05 4,2 C 4,2 C 3,7 C 90 % 88 % 991,8 hPa 0,0 l/m 13,3 km/h (3 Bft) SW 215 0 min
16.01.2018 15:10 4,5 C 4,3 C 3,7 C 90 % 88 % 991,8 hPa 0,0 l/m 14,5 km/h (3 Bft) W 260 4 min
16.01.2018 15:15 4,5 C 4,4 C 3,7 C 90 % 88 % 991,8 hPa 0,0 l/m 14,5 km/h (3 Bft) W 260 0 min
16.01.2018 15:20 4,8 C 4,5 C 3,7 C 88 % 88 % 991,8 hPa 0,0 l/m 15,1 km/h (3 Bft) W-NW 285 7 min
16.01.2018 15:25 4,7 C 4,5 C 3,7 C 88 % 87 % 990,8 hPa 0,0 l/m 10,9 km/h (2 Bft) W-NW 295 0 min
16.01.2018 15:30 4,8 C 4,5 C 3,7 C 87 % 87 % 990,8 hPa 0,0 l/m 21,2 km/h (4 Bft) W-NW 300 0 min
16.01.2018 15:35 4,7 C 4,6 C 3,7 C 88 % 87 % 990,8 hPa 0,0 l/m 16,9 km/h (3 Bft) W 270 0 min
16.01.2018 15:40 4,8 C 4,7 C 3,5 C 88 % 87 % 991,8 hPa 0,0 l/m 23,0 km/h (4 Bft) W-SW 245 0 min
16.01.2018 15:45 5,0 C 4,7 C 3,5 C 87 % 87 % 991,8 hPa 0,0 l/m 22,4 km/h (4 Bft) W-SW 245 2 min
16.01.2018 15:50 5,0 C 4,8 C 3,5 C 85 % 85 % 991,8 hPa 0,0 l/m 25,4 km/h (4 Bft) S-SW 200 5 min
16.01.2018 15:55 4,9 C 4,7 C 3,5 C 84 % 84 % 991,8 hPa 0,0 l/m 17,6 km/h (3 Bft) W-NW 300 5 min
16.01.2018 16:00 4,9 C 4,7 C 3,5 C 83 % 83 % 991,8 hPa 0,0 l/m 24,8 km/h (4 Bft) W 270 5 min
16.01.2018 16:05 4,9 C 4,6 C 3,5 C 83 % 83 % 991,8 hPa 0,0 l/m 15,7 km/h (3 Bft) W-NW 295 5 min
16.01.2018 16:10 4,7 C 4,4 C 3,5 C 83 % 83 % 991,8 hPa 0,0 l/m 16,9 km/h (3 Bft) S 190 3 min
16.01.2018 16:15 4,6 C 4,5 C 3,5 C 83 % 82 % 991,8 hPa 0,0 l/m 19,4 km/h (3 Bft) N-NO 15 0 min
16.01.2018 16:20 4,6 C 4,5 C 3,5 C 83 % 83 % 991,8 hPa 0,0 l/m 19,4 km/h (3 Bft) N-NO 15 0 min
16.01.2018 16:25 4,5 C 4,4 C 3,5 C 84 % 83 % 992,8 hPa 0,0 l/m 23,6 km/h (4 Bft) W-SW 245 0 min
16.01.2018 16:30 4,4 C 4,4 C 3,5 C 84 % 82 % 992,8 hPa 0,0 l/m 21,8 km/h (4 Bft) SW 235 0 min
16.01.2018 16:35 4,4 C 4,5 C 3,5 C 80 % 80 % 992,8 hPa 0,0 l/m 23,6 km/h (4 Bft) W 280 0 min
16.01.2018 16:40 4,4 C 4,4 C 3,5 C 80 % 79 % 991,8 hPa 0,0 l/m 23,6 km/h (4 Bft) W 280 0 min
16.01.2018 16:45 4,3 C 4,4 C 3,5 C 80 % 79 % 991,8 hPa 0,0 l/m 26,0 km/h (4 Bft) W 265 0 min
16.01.2018 16:50 4,3 C 4,4 C 3,5 C 79 % 79 % 991,8 hPa 0,0 l/m 30,5 km/h (5 Bft) S-SW 195 0 min
16.01.2018 16:55 4,2 C 4,2 C 3,5 C 81 % 81 % 991,8 hPa 0,0 l/m 37,1 km/h (5 Bft) NW 305 0 min
16.01.2018 17:00 4,2 C 4,1 C 3,5 C 81 % 80 % 991,8 hPa 0,0 l/m 37,1 km/h (5 Bft) NW 305 0 min
16.01.2018 17:05 4,2 C 4,0 C 3,5 C 81 % 81 % 991,8 hPa 0,0 l/m 37,1 km/h (5 Bft) NW 305 0 min
16.01.2018 17:10 4,2 C 4,1 C 3,5 C 81 % 81 % 992,8 hPa 0,0 l/m 37,1 km/h (5 Bft) NW 305 0 min
16.01.2018 17:15 4,1 C 4,0 C 3,5 C 82 % 82 % 992,8 hPa 0,0 l/m 36,0 km/h (5 Bft) NW 310 0 min
16.01.2018 17:20 4,0 C 4,0 C 3,5 C 84 % 83 % 992,8 hPa 0,0 l/m 34,8 km/h (5 Bft) W 280 0 min
16.01.2018 17:25 3,4 C 3,7 C 3,5 C 88 % 85 % 992,8 hPa 0,3 l/m 34,4 km/h (5 Bft) W-NW 295 0 min
16.01.2018 17:30 3,3 C 3,5 C 3,5 C 88 % 86 % 992,8 hPa 0,0 l/m 34,4 km/h (5 Bft) W 265 0 min
16.01.2018 17:35 2,9 C 3,2 C 3,5 C 90 % 87 % 992,8 hPa 0,0 l/m 32,9 km/h (5 Bft) S-SW 195 0 min
16.01.2018 17:40 2,8 C 3,1 C 3,5 C 91 % 87 % 992,8 hPa 0,0 l/m 19,4 km/h (3 Bft) N-NW 330 0 min
16.01.2018 17:45 2,7 C 3,0 C 2,9 C 90 % 87 % 992,8 hPa 0,0 l/m 17,6 km/h (3 Bft) W-SW 240 0 min
16.01.2018 17:50 2,7 C 2,9 C 2,9 C 91 % 87 % 992,8 hPa 0,0 l/m 16,3 km/h (3 Bft) N-NW 340 0 min
16.01.2018 17:55 2,7 C 2,9 C 2,9 C 91 % 88 % 992,8 hPa 0,0 l/m 13,3 km/h (3 Bft) NW 305 0 min
16.01.2018 18:00 3,1 C 2,9 C 2,9 C 89 % 88 % 992,8 hPa 0,0 l/m 23,0 km/h (4 Bft) W 280 0 min
16.01.2018 18:05 3,1 C 3,1 C 2,9 C 89 % 88 % 992,8 hPa 0,0 l/m 27,8 km/h (5 Bft) O-SO 115 0 min
16.01.2018 18:10 3,0 C 2,9 C 2,9 C 89 % 88 % 991,8 hPa 0,3 l/m 27,1 km/h (5 Bft) NW 310 0 min
16.01.2018 18:15 2,8 C 2,9 C 2,7 C 91 % 88 % 991,8 hPa 0,3 l/m 27,4 km/h (5 Bft) NW 305 0 min
16.01.2018 18:20 2,8 C 2,9 C 2,7 C 91 % 88 % 991,8 hPa 0,0 l/m 27,4 km/h (5 Bft) NW 305 0 min
16.01.2018 18:25 2,8 C 2,8 C 2,7 C 91 % 88 % 992,8 hPa 0,0 l/m 14,5 km/h (3 Bft) SW 235 0 min
16.01.2018 18:30 2,7 C 2,8 C 2,7 C 92 % 89 % 992,8 hPa 0,0 l/m 15,1 km/h (3 Bft) SW 230 0 min
16.01.2018 18:35 2,7 C 2,8 C 2,7 C 92 % 89 % 992,8 hPa 0,0 l/m 15,1 km/h (3 Bft) SW 230 0 min
16.01.2018 18:40 2,7 C 2,8 C 2,7 C 92 % 89 % 991,8 hPa 0,0 l/m 15,1 km/h (3 Bft) SW 230 0 min
16.01.2018 18:45 2,7 C 2,7 C 2,7 C 92 % 90 % 991,8 hPa 0,0 l/m 15,1 km/h (3 Bft) SW 230 0 min
16.01.2018 18:50 2,7 C 2,7 C 2,5 C 92 % 89 % 991,8 hPa 0,0 l/m 15,1 km/h (3 Bft) SW 230 0 min
16.01.2018 18:55 2,6 C 2,7 C 2,5 C 93 % 89 % 992,8 hPa 0,0 l/m 13,3 km/h (3 Bft) NW 305 0 min
16.01.2018 19:00 2,5 C 2,6 C 2,5 C 92 % 89 % 992,8 hPa 0,0 l/m 12,1 km/h (2 Bft) SW 220 0 min
16.01.2018 19:05 2,5 C 2,5 C 2,5 C 92 % 89 % 992,8 hPa 0,0 l/m 12,1 km/h (2 Bft) SW 220 0 min
16.01.2018 19:10 2,5 C 2,4 C 2,5 C 92 % 90 % 992,8 hPa 0,0 l/m 14,5 km/h (3 Bft) W-SW 245 0 min
16.01.2018 19:15 2,5 C 2,4 C 2,5 C 92 % 90 % 992,8 hPa 0,0 l/m 14,5 km/h (3 Bft) W-SW 245 0 min
16.01.2018 19:20 2,5 C 2,4 C 2,3 C 92 % 90 % 992,8 hPa 0,0 l/m 14,5 km/h (3 Bft) SW 215 0 min
16.01.2018 19:25 2,5 C 2,5 C 2,3 C 92 % 89 % 991,8 hPa 0,0 l/m 14,5 km/h (3 Bft) SW 215 0 min
16.01.2018 19:30 2,5 C 2,5 C 2,3 C 92 % 89 % 991,8 hPa 0,0 l/m 14,5 km/h (3 Bft) SW 215 0 min
16.01.2018 19:35 2,7 C 2,6 C 2,3 C 90 % 88 % 991,8 hPa 0,0 l/m 15,7 km/h (3 Bft) W-SW 245 0 min
16.01.2018 19:40 2,7 C 2,5 C 2,3 C 90 % 88 % 992,8 hPa 0,0 l/m 13,3 km/h (3 Bft) SW 235 0 min
16.01.2018 19:45 2,7 C 2,5 C 2,3 C 89 % 88 % 992,8 hPa 0,0 l/m 15,7 km/h (3 Bft) SW 230 0 min
16.01.2018 19:50 2,8 C 2,6 C 2,3 C 89 % 88 % 992,8 hPa 0,0 l/m 18,8 km/h (3 Bft) S-SW 210 0 min
16.01.2018 19:55 2,7 C 2,6 C 2,3 C 90 % 88 % 991,8 hPa 0,0 l/m 12,7 km/h (3 Bft) SW 225 0 min
16.01.2018 20:00 2,7 C 2,6 C 2,3 C 90 % 88 % 991,8 hPa 0,0 l/m 15,1 km/h (3 Bft) SW 220 0 min
16.01.2018 20:05 2,6 C 2,5 C 2,3 C 90 % 88 % 991,8 hPa 0,0 l/m 13,3 km/h (3 Bft) S-SW 200 0 min
16.01.2018 20:10 2,6 C 2,4 C 2,1 C 90 % 88 % 991,8 hPa 0,0 l/m 10,9 km/h (2 Bft) W-SW 245 0 min
16.01.2018 20:15 2,5 C 2,4 C 2,1 C 91 % 88 % 991,8 hPa 0,0 l/m 8,5 km/h (2 Bft) SW 230 0 min
16.01.2018 20:20 2,5 C 2,3 C 2,1 C 91 % 88 % 991,8 hPa 0,0 l/m 10,3 km/h (2 Bft) W-SW 255 0 min
16.01.2018 20:25 2,4 C 2,3 C 2,1 C 91 % 89 % 991,8 hPa 0,0 l/m 10,9 km/h (2 Bft) SW 235 0 min
16.01.2018 20:30 2,4 C 2,3 C 2,1 C 91 % 89 % 991,8 hPa 0,0 l/m 8,5 km/h (2 Bft) SW 225 0 min
16.01.2018 20:35 2,7 C 2,4 C 2,1 C 91 % 89 % 991,8 hPa 0,0 l/m 16,3 km/h (3 Bft) S 170 0 min
16.01.2018 20:40 2,7 C 2,4 C 2,1 C 91 % 89 % 991,8 hPa 0,0 l/m 12,1 km/h (2 Bft) W-SW 250 0 min
16.01.2018 20:45 2,7 C 2,4 C 2,1 C 91 % 89 % 991,8 hPa 0,0 l/m 12,1 km/h (2 Bft) W-SW 250 0 min
16.01.2018 20:50 2,6 C 2,4 C 2,1 C 91 % 89 % 991,8 hPa 0,0 l/m 13,9 km/h (3 Bft) SW 235 0 min
16.01.2018 20:55 2,5 C 2,4 C 2,1 C 91 % 89 % 991,8 hPa 0,0 l/m 14,5 km/h (3 Bft) SW 230 0 min
16.01.2018 21:00 2,6 C 2,4 C 2,1 C 91 % 89 % 991,8 hPa 0,0 l/m 14,5 km/h (3 Bft) W-SW 245 0 min
16.01.2018 21:05 2,5 C 2,4 C 2,1 C 91 % 89 % 991,8 hPa 0,0 l/m 12,1 km/h (2 Bft) SW 230 0 min
16.01.2018 21:10 2,6 C 2,4 C 1,9 C 91 % 89 % 991,8 hPa 0,0 l/m 8,5 km/h (2 Bft) S-SW 205 0 min
16.01.2018 21:15 2,6 C 2,3 C 1,9 C 91 % 89 % 991,8 hPa 0,0 l/m 10,3 km/h (2 Bft) SW 225 0 min
16.01.2018 21:20 2,6 C 2,4 C 1,9 C 91 % 89 % 991,8 hPa 0,0 l/m 9,7 km/h (2 Bft) S-SW 210 0 min
16.01.2018 21:25 2,7 C 2,4 C 1,9 C 91 % 89 % 991,8 hPa 0,0 l/m 13,3 km/h (3 Bft) S-SW 210 0 min
16.01.2018 21:30 2,8 C 2,5 C 1,9 C 90 % 89 % 991,8 hPa 0,0 l/m 11,5 km/h (2 Bft) W-SW 240 0 min
16.01.2018 21:35 2,8 C 2,5 C 1,9 C 90 % 88 % 991,8 hPa 0,0 l/m 12,7 km/h (3 Bft) S-SW 205 0 min
16.01.2018 21:40 2,7 C 2,5 C 1,9 C 90 % 88 % 991,8 hPa 0,0 l/m 15,7 km/h (3 Bft) W-SW 240 0 min
16.01.2018 21:45 2,8 C 2,5 C 1,9 C 90 % 88 % 991,8 hPa 0,0 l/m 12,1 km/h (2 Bft) SW 225 0 min
16.01.2018 21:50 2,8 C 2,6 C 1,9 C 89 % 88 % 991,8 hPa 0,0 l/m 18,2 km/h (3 Bft) SW 230 0 min
16.01.2018 21:55 2,9 C 2,6 C 1,9 C 89 % 88 % 991,8 hPa 0,0 l/m 18,2 km/h (3 Bft) SW 220 0 min
16.01.2018 22:00 3,1 C 2,8 C 1,9 C 89 % 88 % 991,8 hPa 0,0 l/m 20,6 km/h (4 Bft) W 265 0 min
16.01.2018 22:05 3,3 C 2,9 C 2,1 C 88 % 88 % 991,8 hPa 0,0 l/m 23,6 km/h (4 Bft) SW 235 0 min
16.01.2018 22:10 3,1 C 2,9 C 2,1 C 88 % 88 % 991,8 hPa 0,0 l/m 16,9 km/h (3 Bft) SW 230 0 min
16.01.2018 22:15 3,1 C 2,8 C 2,1 C 89 % 88 % 991,8 hPa 0,0 l/m 15,7 km/h (3 Bft) S-SW 210 0 min
16.01.2018 22:20 3,1 C 2,8 C 2,1 C 89 % 88 % 991,8 hPa 0,0 l/m 18,2 km/h (3 Bft) W-SW 245 0 min
16.01.2018 22:25 3,2 C 2,9 C 2,1 C 89 % 88 % 990,8 hPa 0,0 l/m 15,7 km/h (3 Bft) S 185 0 min
16.01.2018 22:30 3,2 C 2,9 C 2,1 C 89 % 88 % 990,8 hPa 0,0 l/m 15,7 km/h (3 Bft) S 185 0 min
16.01.2018 22:35 3,2 C 2,9 C 2,1 C 89 % 88 % 990,8 hPa 0,0 l/m 15,7 km/h (3 Bft) S 185 0 min
16.01.2018 22:40 3,2 C 2,9 C 2,1 C 89 % 88 % 990,8 hPa 0,0 l/m 15,7 km/h (3 Bft) S 185 0 min
16.01.2018 22:45 3,1 C 2,9 C 2,1 C 89 % 88 % 990,8 hPa 0,0 l/m 13,3 km/h (3 Bft) S-SW 210 0 min
16.01.2018 22:50 3,1 C 2,9 C 2,1 C 89 % 88 % 990,8 hPa 0,0 l/m 15,1 km/h (3 Bft) S-SW 210 0 min
16.01.2018 22:55 3,1 C 2,9 C 2,1 C 89 % 88 % 991,8 hPa 0,0 l/m 15,1 km/h (3 Bft) S-SW 210 0 min
16.01.2018 23:00 3,2 C 3,0 C 2,1 C 89 % 88 % 991,8 hPa 0,0 l/m 19,4 km/h (3 Bft) W-SW 240 0 min
16.01.2018 23:05 3,3 C 3,0 C 2,1 C 89 % 88 % 991,8 hPa 0,0 l/m 23,0 km/h (4 Bft) S-SW 195 0 min
16.01.2018 23:10 3,3 C 3,1 C 2,1 C 88 % 88 % 990,8 hPa 0,0 l/m 15,7 km/h (3 Bft) SW 215 0 min
16.01.2018 23:15 3,4 C 3,1 C 2,1 C 88 % 88 % 990,8 hPa 0,0 l/m 18,2 km/h (3 Bft) SW 235 0 min
16.01.2018 23:20 3,3 C 3,1 C 2,1 C 89 % 88 % 990,8 hPa 0,0 l/m 13,9 km/h (3 Bft) W 280 0 min
16.01.2018 23:25 3,3 C 3,1 C 2,1 C 89 % 88 % 991,8 hPa 0,0 l/m 13,9 km/h (3 Bft) W 280 0 min
16.01.2018 23:30 3,3 C 3,1 C 2,1 C 89 % 88 % 991,8 hPa 0,0 l/m 13,9 km/h (3 Bft) W 280 0 min
16.01.2018 23:35 3,5 C 3,2 C 2,1 C 88 % 88 % 991,8 hPa 0,0 l/m 20,6 km/h (4 Bft) SW 235 0 min
16.01.2018 23:40 3,5 C 3,2 C 2,1 C 88 % 88 % 990,8 hPa 0,0 l/m 19,4 km/h (3 Bft) SW 220 0 min
16.01.2018 23:45 3,5 C 3,3 C 2,1 C 88 % 88 % 990,8 hPa 0,0 l/m 19,4 km/h (3 Bft) SW 220 0 min
16.01.2018 23:50 3,5 C 3,3 C 2,1 C 88 % 88 % 990,8 hPa 0,0 l/m 17,6 km/h (3 Bft) SW 220 0 min
16.01.2018 23:55 3,5 C 3,3 C 2,1 C 88 % 88 % 991,8 hPa 0,0 l/m 17,6 km/h (3 Bft) SW 220 0 min
_ Min-Zeit 20:25 20:20 21:10 16:50 16:40 10:05 - 08:45 - - -
Minimum _ 2,4 C 2,3 C 1,9 C 79 % 79 % 988,7 hPa - 3,6 km/h (1 Bft) - - -
_ Max-Zeit 00:00 00:00 00:00 11:30 00:40 19:10 08:15 10:55 - - 14:35
Maximum _ 7,2 C 7,1 C 4,9 C 95 % 91 % 992,8 hPa 0,6 l/m 46,8 km/h
W (6 Bft)
- - 9 min
Durchschnitt _ 4,8 C 4,7 C 3,8 C 89 % 88 % 991,0 hPa #8,9 l/m 21,9 km/h (4 Bft) SW - #1:50 h